Location: La Prune
(46.5190°N, 1.5618°E)
Time: 05:59:42
(UTC+00:00)

Daily predictions for brighter satellites

Satellite Brightness Start Highest point End
(mag) Time Altitude Azimuth Time Altitude Azimuth Time Altitude Azimuth
Cosmos 2333 Rocket 4.0 03:43:04 26° E 03:43:04 26° E 03:47:33 10° NE
Cosmos 2219 Rocket 4.0 03:48:15 25° ESE 03:48:51 26° ESE 03:53:22 10° NE
COSMOS 2428 4.5 04:00:10 21° SE 04:02:36 28° ESE 04:07:23 10° NE
Cosmos 2233 Rocket 4.5 04:11:18 55° NE 04:11:18 55° NE 04:16:19 10° NNE
SL-16 R/B 4.3 04:14:31 17° N 04:14:31 17° N 04:15:51 10° NNE
Cosmos 2322 Rocket 4.1 04:20:45 19° N 04:20:45 19° N 04:22:25 10° NNE
Cosmos 2360 Rocket 3.5 04:20:05 31° NNE 04:20:05 31° NNE 04:22:54 10° NNE
USA 215 4.0 04:26:29 10° NE 04:32:22 37° N 04:32:31 37° NNW
Meteor 1-24 Rocket 4.4 04:35:52 43° SSE 04:35:52 43° SSE 04:39:35 10° S
COSMO-SKYMED 1 3.4 04:37:28 10° SSE 04:41:14 49° E 04:41:14 49° E
SJ 16-02 3.4 04:47:01 18° SSE 04:47:01 18° SSE 04:48:10 10° SSE
ADEOS 3.7 04:39:31 10° NNE 04:44:46 74° ESE 04:46:24 44° S
ERS-2 3.9 04:42:21 10° SE 04:44:45 31° ESE 04:44:45 31° ESE
BREEZE-M DEB (TANK) 3.9 04:45:04 46° WNW 04:48:22 86° NNE 04:52:40 10° ESE
Cosmos 1726 4.1 04:57:37 23° NNE 04:57:37 23° NNE 04:59:10 10° NNE
Cosmos 1758 3.9 04:56:37 56° E 04:56:37 56° E 05:00:34 10° NNE
Cosmos 990 Rocket 3.9 04:57:53 55° N 04:59:00 80° ENE 05:04:09 10° SSE
CZ-4B R/B 3.8 04:57:39 10° NNE 05:01:06 42° E 05:04:36 10° S
Okean 1-7 Rocket 4.3 05:00:58 16° N 05:04:32 55° ENE 05:08:57 10° SSE
SKYMED 3 4.5 05:01:16 10° SSE 05:05:30 85° SSE 05:05:30 85° SSE
IRIDIUM 106 4.2 05:02:18 10° S 05:07:31 83° W 05:12:46 10° N
Cosmos 44 Rocket 4.0 05:05:58 34° NNW 05:08:02 55° NE 05:13:09 10° SE
MOS 1 Rocket 3.6 05:04:14 10° SSE 05:09:16 70° ENE 05:13:36 12° N
BREEZE-M (TANK) 4.2 05:14:06 19° E 05:14:06 19° E 05:14:44 10° ESE
ALOS 4.4 05:09:16 10° N 05:09:56 14° N 05:09:56 14° N
Cosmos 2278 Rocket 2.5 05:10:18 22° NNW 05:14:02 66° ENE 05:19:40 10° SE
Lacrosse 5 rocket 2.2 05:17:26 34° N 05:17:55 36° NNE 05:21:26 10° E
Cosmos 2034 Rocket 4.5 05:15:26 10° S 05:21:42 63° E 05:28:00 10° NNE
Cosmos 2322 3.8 05:21:11 46° W 05:22:10 51° WNW 05:27:46 10° NNE
Cosmos 1763 Rocket 3.4 05:18:44 10° SSW 05:23:54 88° WNW 05:29:10 10° NNE
METEOR-M 4.3 05:18:50 10° N 05:23:56 46° WNW 05:24:28 45° W
Cosmos 1943 Rocket 4.4 05:21:36 10° N 05:25:37 19° NE 05:29:37 10° E
Cosmos 1898 Rocket 3.3 05:23:31 34° NNW 05:25:46 72° WSW 05:30:55 10° SSE
Cosmos 2237 Rocket 3.1 05:20:22 10° S 05:25:46 49° ESE 05:31:15 10° NE
Cosmos 2333 Rocket 2.3 05:25:09 39° WSW 05:26:52 54° WNW 05:32:26 10° NNE
Cosmos 1455 Rocket 2.9 05:22:47 10° S 05:27:09 82° W 05:31:31 10° N
Cosmos 841 Rocket 4.2 05:24:03 10° S 05:29:00 53° ESE 05:34:01 10° NNE
H-2A R/B 2.8 05:25:52 10° NNE 05:29:33 71° E 05:33:15 10° S
SKYMED 2 3.6 05:25:28 10° S 05:29:41 51° W 05:29:48 51° W
Nadezhda 4 Rocket 4.0 05:24:50 10° N 05:30:59 78° E 05:37:06 10° SSE
CZ-2C R/B 3.9 05:26:48 10° SE 05:31:36 39° ENE 05:36:30 10° N
Cosmos 2219 Rocket 2.2 05:30:03 32° WSW 05:32:27 54° WNW 05:37:56 10° NNE
SAR-Lupe-4 3.4 05:31:51 10° S 05:35:27 75° WSW 05:36:25 46° NNW
Cosmos 1400 Rocket 4.4 05:32:48 10° SSE 05:36:34 38° E 05:40:24 10° NNE
Okean O Rocket 4.2 05:37:18 10° NE 05:40:48 23° E 05:44:16 10° SSE
Cosmos 1689 Rocket 2.1 05:39:14 10° S 05:41:45 58° SSW 05:41:45 58° SSW
deb Chang Zheng 4 3.6 05:38:58 10° N 05:43:07 53° WNW 05:47:14 10° SSW
H-2A R/B 4.3 05:40:10 10° NNE 05:44:19 36° E 05:48:28 10° SSE
SL-8 R/B 3.7 05:43:04 36° W 05:44:59 71° SSW 05:49:47 10° ESE
PSLV R/B 4.4 05:41:20 10° NNE 05:45:14 60° ESE 05:49:12 10° S
SAR-Lupe-1 4.1 05:42:56 10° S 05:46:28 56° W 05:47:39 36° NW
COSMOS 2428 2.8 05:42:19 17° SW 05:46:36 50° WNW 05:52:09 10° NNE
ATLAS CENTAUR R/B 4.2 05:49:53 10° SSE 05:52:21 17° ESE 05:54:49 10° ENE
GEOS 3 Rocket 4.2 05:48:03 10° S 05:53:04 41° WSW 05:55:47 24° WNW
Meteor 2-13 Rocket 4.4 05:46:59 10° NNW 05:53:09 73° W 05:59:16 10° S
Cosmos 468 Rocket 4.2 05:51:04 10° SW 05:56:05 46° WNW 06:01:12 10° NNE
SL-16 R/B 4.2 05:56:23 11° NNW 05:56:23 11° NNW 05:57:46 10° NNW
Cosmos 1602 Rocket 3.7 05:53:38 10° N 05:58:06 77° E 06:02:34 10° SSE
DMSP B5D1-3 4.4 05:53:10 10° S 05:58:16 74° WSW 06:03:23 10° NNW
Cosmos 1980 3.7 05:52:36 10° SSW 05:58:16 90° WNW 06:03:58 10° NNE
Cosmos 1937 Rocket 3.7 05:57:48 15° NW 06:01:59 49° WSW 06:06:59 10° S
Cosmos 2360 Rocket 3.7 06:01:52 17° NW 06:02:12 17° NW 06:05:52 10° N
Cosmos 2322 Rocket 4.1 06:02:35 12° NNW 06:02:35 12° NNW 06:04:29 10° NNW
Cosmos 1953 2.3 05:59:34 10° SSW 06:03:28 53° WNW 06:07:23 10° N
YAOGAN 6 2.5 05:59:57 10° N 06:03:38 68° WNW 06:07:18 10° SSW
Cosmos 1814 Rocket 4.1 05:59:11 10° SSW 06:04:18 79° ESE 06:09:27 10° NNE
Envisat 2.9 06:01:15 10° N 06:06:20 75° WNW 06:11:24 10° SSW
NOAA 6 4.1 06:01:48 10° NNE 06:07:02 82° ESE 06:12:13 10° SSW
Cosmos 372 Rocket 3.9 06:01:58 10° NNW 06:07:16 82° WSW 06:12:30 10° SSE
Cosmos 2026 Rocket 4.3 06:01:56 10° N 06:08:16 72° E 06:14:38 10° SSE
Cosmos 1461 3.3 06:05:30 10° SW 06:10:07 55° NW 06:14:50 10° NNE
CZ-4B DEB 4.3 06:04:56 10° NNE 06:10:32 86° ESE 06:16:06 10° SSW
USA 215 4.1 06:08:32 10° ENE 06:14:28 39° NNE 06:19:52 13° NW
FALCON 9 DEB 3.4 06:12:44 10° SW 06:16:06 67° SE 06:19:30 10° ENE
Cosmos 1908 3.2 06:14:17 10° SSW 06:18:00 54° WNW 06:21:46 10° N
COSMO-SKYMED 1 4.0 06:15:14 10° SW 06:18:07 17° W 06:18:27 17° W
ERS-2 3.7 06:17:00 10° SW 06:19:20 17° W 06:19:20 17° W
Cosmos 921 Rocket 3.9 06:16:38 10° WSW 06:20:13 26° WNW 06:23:47 10° N
ATLAS 5 CENTAUR R/B 2.9 06:19:56 16° WSW 06:21:06 21° SW 06:24:47 10° S
Cosmos 1315 Rocket 4.2 06:19:43 10° SSE 06:23:25 41° E 06:27:06 10° NNE
NOSS 0 Rocket 4.0 06:18:27 10° SW 06:24:31 54° NW 06:30:35 10° NNE
Meteor 1-16 Rocket 4.4 06:19:53 10° SSW 06:25:40 58° WNW 06:31:32 10° N
Cosmos 1726 4.1 06:32:12 12° NW 06:32:12 12° NW 06:32:53 10° NW
CZ-4B R/B 4.2 06:33:47 10° NNW 06:35:55 15° WNW 06:38:03 10° W
Cosmos 1953 Rocket 4.4 06:32:21 10° N 06:36:36 52° ENE 06:40:50 10° SSE
NOSS 3-2 (A) 3.9 06:35:08 10° SSW 06:40:40 64° ESE 06:47:02 10° NE
Cosmos 540 Rocket 3.9 06:36:41 10° SW 06:41:24 37° WNW 06:46:12 10° N
Meteor 1-11 4.2 06:36:22 10° NNW 06:41:56 69° W 06:47:27 10° S
Cosmos 1703 4.4 06:45:01 10° NW 06:48:12 24° W 06:51:22 10° SW
CZ-2C R/B 3.8 06:46:27 10° SSW 06:48:27 14° S 06:50:25 10° SE
Lacrosse 4 Rocket 1.5 06:44:19 10° SSW 06:48:32 88° ESE 06:52:54 10° NNE
DMSP B5D2-2 4.1 06:45:53 10° S 06:51:04 64° WSW 06:56:20 10° NNW
Cosmos 1606 Rocket 3.6 06:46:53 10° S 06:51:12 89° E 06:55:32 10° N
Cosmos 2150 Rocket 4.1 06:46:48 10° NNW 06:52:05 66° WSW 06:57:25 10° S
CZ-2C R/B 4.4 06:46:34 10° NNE 06:52:16 51° E 06:57:51 10° S
Cosmos 1346 Rocket 2.9 06:48:34 10° NNW 06:52:29 58° W 06:56:23 10° S
Cosmos 2369 Rocket 3.3 06:48:15 10° NNW 06:53:36 43° NE 06:58:54 10° SE
Cosmos 1340 3.9 06:51:07 10° NW 06:54:03 22° W 06:56:58 10° SW
CZ-4B R/B 3.3 06:50:39 10° N 06:56:19 70° WNW 07:01:53 10° SSW
SL-16 R/B 2.3 06:50:40 10° SSW 06:56:19 89° ESE 07:02:02 10° NNE
Cosmos 1939 Rocket 2.8 06:52:30 10° NNE 06:56:29 89° WNW 07:00:22 10° SSW
H-2A R/B 4.2 06:52:16 10° NNE 06:57:04 32° E 07:01:54 10° SSE
Lacrosse 5 rocket 1.8 06:53:27 10° WNW 06:57:05 40° SW 07:00:33 10° SSE
Cosmos 2278 Rocket 3.5 06:53:26 10° NW 06:57:34 21° W 07:01:42 10° SSW
Cosmos 1092 Rocket 4.4 06:52:24 10° NNW 06:58:02 39° W 07:03:39 10° SSW
PAYLOAD B 4.5 06:53:52 10° N 06:59:13 49° WNW 07:04:34 10° SW
Cosmos 2084 Rocket 3.6 06:54:57 10° NW 06:59:20 83° NE 07:03:51 10° SE
